Year,Month,Day,Hour,Minute,Value (Times are PST for temperature in C)
2015,07,05,00,00,19.20
2015,07,05,00,01,19.10
2015,07,05,00,02,19.10
2015,07,05,00,03,19.10
2015,07,05,00,04,19.10
2015,07,05,00,05,19.10
2015,07,05,00,06,19.10
2015,07,05,00,07,19.10
2015,07,05,00,08,19.10
2015,07,05,00,09,19.00
2015,07,05,00,10,19.00
2015,07,05,00,11,19.00
2015,07,05,00,12,19.00
2015,07,05,00,13,19.00
2015,07,05,00,14,19.00
2015,07,05,00,15,18.90
2015,07,05,00,16,18.90
2015,07,05,00,17,18.90
2015,07,05,00,18,18.90
2015,07,05,00,19,18.80
2015,07,05,00,20,18.80
2015,07,05,00,21,18.80
2015,07,05,00,22,18.80
2015,07,05,00,23,18.70
2015,07,05,00,24,18.70
2015,07,05,00,25,18.70
2015,07,05,00,26,18.70
2015,07,05,00,27,18.70
2015,07,05,00,28,18.70
2015,07,05,00,29,18.60
2015,07,05,00,30,18.60
2015,07,05,00,31,18.60
2015,07,05,00,32,18.60
2015,07,05,00,33,18.60
2015,07,05,00,34,18.60
2015,07,05,00,35,18.60
2015,07,05,00,36,18.60
2015,07,05,00,37,18.60
2015,07,05,00,38,18.50
2015,07,05,00,39,18.50
2015,07,05,00,40,18.50
2015,07,05,00,41,18.40
2015,07,05,00,42,18.40
2015,07,05,00,43,18.40
2015,07,05,00,44,18.30
2015,07,05,00,45,18.30
2015,07,05,00,46,18.30
2015,07,05,00,47,18.20
2015,07,05,00,48,18.20
2015,07,05,00,49,18.20
2015,07,05,00,50,18.10
2015,07,05,00,51,18.10
2015,07,05,00,52,18.10
2015,07,05,00,53,18.10
2015,07,05,00,54,18.10
2015,07,05,00,55,18.10
2015,07,05,00,56,18.10
2015,07,05,00,57,18.10
2015,07,05,00,58,18.10
2015,07,05,00,59,18.10
2015,07,05,01,00,18.10
2015,07,05,01,01,18.10
2015,07,05,01,02,18.00
2015,07,05,01,03,18.00
2015,07,05,01,04,17.90
2015,07,05,01,05,17.90
2015,07,05,01,06,17.90
2015,07,05,01,07,17.90
2015,07,05,01,08,17.80
2015,07,05,01,09,17.80
2015,07,05,01,10,17.80
2015,07,05,01,11,17.80
2015,07,05,01,12,17.80
2015,07,05,01,13,17.80
2015,07,05,01,14,17.80
2015,07,05,01,15,17.70
2015,07,05,01,16,17.70
2015,07,05,01,17,17.70
2015,07,05,01,18,17.70
2015,07,05,01,19,17.70
2015,07,05,01,20,17.60
2015,07,05,01,21,17.60
2015,07,05,01,22,17.50
2015,07,05,01,23,17.50
2015,07,05,01,24,17.40
2015,07,05,01,25,17.40
2015,07,05,01,26,17.40
2015,07,05,01,27,17.30
2015,07,05,01,28,17.30
2015,07,05,01,29,17.30
2015,07,05,01,30,17.20
2015,07,05,01,31,17.20
2015,07,05,01,32,17.20
2015,07,05,01,33,17.20
2015,07,05,01,34,17.10
2015,07,05,01,35,17.10
2015,07,05,01,36,17.10
2015,07,05,01,37,17.10
2015,07,05,01,38,17.10
2015,07,05,01,39,17.10
2015,07,05,01,40,17.10
2015,07,05,01,41,17.10
2015,07,05,01,42,17.10
2015,07,05,01,43,17.00
2015,07,05,01,44,17.00
2015,07,05,01,45,17.00
2015,07,05,01,46,17.00
2015,07,05,01,47,16.90
2015,07,05,01,48,16.90
2015,07,05,01,49,16.90
2015,07,05,01,50,16.90
2015,07,05,01,51,16.90
2015,07,05,01,52,16.80
2015,07,05,01,53,16.80
2015,07,05,01,54,16.80
2015,07,05,01,55,16.80
2015,07,05,01,56,16.80
2015,07,05,01,57,16.80
2015,07,05,01,58,16.80
2015,07,05,01,59,16.80
2015,07,05,02,00,16.70
2015,07,05,02,01,16.70
2015,07,05,02,02,16.70
2015,07,05,02,03,16.70
2015,07,05,02,04,16.70
2015,07,05,02,05,16.70
2015,07,05,02,06,16.70
2015,07,05,02,07,16.70
2015,07,05,02,08,16.70
2015,07,05,02,09,16.70
2015,07,05,02,10,16.70
2015,07,05,02,11,16.70
2015,07,05,02,12,16.70
2015,07,05,02,13,16.70
2015,07,05,02,14,16.70
2015,07,05,02,15,16.70
2015,07,05,02,16,16.70
2015,07,05,02,17,16.70
2015,07,05,02,18,16.70
2015,07,05,02,19,16.70
2015,07,05,02,20,16.70
2015,07,05,02,21,16.70
2015,07,05,02,22,16.70
2015,07,05,02,23,16.70
2015,07,05,02,24,16.70
2015,07,05,02,25,16.70
2015,07,05,02,26,16.60
2015,07,05,02,27,16.60
2015,07,05,02,28,16.60
2015,07,05,02,29,16.60
2015,07,05,02,30,16.60
2015,07,05,02,31,16.60
2015,07,05,02,32,16.50
2015,07,05,02,33,16.50
2015,07,05,02,34,16.50
2015,07,05,02,35,16.40
2015,07,05,02,36,16.40
2015,07,05,02,37,16.40
2015,07,05,02,38,16.30
2015,07,05,02,39,16.30
2015,07,05,02,40,16.30
2015,07,05,02,41,16.30
2015,07,05,02,42,16.30
2015,07,05,02,43,16.30
2015,07,05,02,44,16.30
2015,07,05,02,45,16.30
2015,07,05,02,46,16.30
2015,07,05,02,47,16.30
2015,07,05,02,48,16.30
2015,07,05,02,49,16.30
2015,07,05,02,50,16.30
2015,07,05,02,51,16.20
2015,07,05,02,52,16.20
2015,07,05,02,53,16.20
2015,07,05,02,54,16.20
2015,07,05,02,55,16.10
2015,07,05,02,56,16.10
2015,07,05,02,57,16.10
2015,07,05,02,58,16.10
2015,07,05,02,59,16.10
2015,07,05,03,00,16.00
2015,07,05,03,01,16.00
2015,07,05,03,02,16.00
2015,07,05,03,03,16.00
2015,07,05,03,04,16.00
2015,07,05,03,05,16.00
2015,07,05,03,06,16.00
2015,07,05,03,07,16.00
2015,07,05,03,08,16.00
2015,07,05,03,09,16.00
2015,07,05,03,10,16.00
2015,07,05,03,11,16.00
2015,07,05,03,12,16.00
2015,07,05,03,13,16.00
2015,07,05,03,14,16.00
2015,07,05,03,15,16.00
2015,07,05,03,16,16.00
2015,07,05,03,17,15.90
2015,07,05,03,18,15.90
2015,07,05,03,19,15.90
2015,07,05,03,20,15.90
2015,07,05,03,21,15.90
2015,07,05,03,22,15.90
2015,07,05,03,23,15.90
2015,07,05,03,24,15.90
2015,07,05,03,25,15.90
2015,07,05,03,26,15.90
2015,07,05,03,27,15.90
2015,07,05,03,28,15.90
2015,07,05,03,29,15.90
2015,07,05,03,30,15.90
2015,07,05,03,31,15.90
2015,07,05,03,32,15.90
2015,07,05,03,33,15.80
2015,07,05,03,34,15.80
2015,07,05,03,35,15.80
2015,07,05,03,36,15.80
2015,07,05,03,37,15.80
2015,07,05,03,38,15.80
2015,07,05,03,39,15.80
2015,07,05,03,40,15.80
2015,07,05,03,41,15.80
2015,07,05,03,42,15.80
2015,07,05,03,43,15.70
2015,07,05,03,44,15.70
2015,07,05,03,45,15.70
2015,07,05,03,46,15.70
2015,07,05,03,47,15.70
2015,07,05,03,48,15.70
2015,07,05,03,49,15.70
2015,07,05,03,50,15.70
2015,07,05,03,51,15.70
2015,07,05,03,52,15.60
2015,07,05,03,53,15.60
2015,07,05,03,54,15.60
2015,07,05,03,55,15.60
2015,07,05,03,56,15.60
2015,07,05,03,57,15.50
2015,07,05,03,58,15.50
2015,07,05,03,59,15.40
2015,07,05,04,00,15.40
2015,07,05,04,01,15.40
2015,07,05,04,02,15.40
2015,07,05,04,03,15.40
2015,07,05,04,04,15.40
2015,07,05,04,05,15.40
2015,07,05,04,06,15.40
2015,07,05,04,07,15.30
2015,07,05,04,08,15.30
2015,07,05,04,09,15.30
2015,07,05,04,10,15.30
2015,07,05,04,11,15.30
2015,07,05,04,12,15.30
2015,07,05,04,13,15.30
2015,07,05,04,14,15.30
2015,07,05,04,15,15.20
2015,07,05,04,16,15.20
2015,07,05,04,17,15.20
2015,07,05,04,18,15.20
2015,07,05,04,19,15.20
2015,07,05,04,20,15.20
2015,07,05,04,21,15.20
2015,07,05,04,22,15.20
2015,07,05,04,23,15.10
2015,07,05,04,24,15.10
2015,07,05,04,25,15.10
2015,07,05,04,26,15.10
2015,07,05,04,27,15.10
2015,07,05,04,28,15.10
2015,07,05,04,29,15.10
2015,07,05,04,30,15.10
2015,07,05,04,31,15.10
2015,07,05,04,32,15.10
2015,07,05,04,33,15.10
2015,07,05,04,34,15.10
2015,07,05,04,35,15.10
2015,07,05,04,36,15.10
2015,07,05,04,37,15.00
2015,07,05,04,38,15.00
2015,07,05,04,39,15.00
2015,07,05,04,40,15.00
2015,07,05,04,41,15.00
2015,07,05,04,42,15.00
2015,07,05,04,43,15.00
2015,07,05,04,44,15.00
2015,07,05,04,45,15.00
2015,07,05,04,46,15.00
2015,07,05,04,47,15.00
2015,07,05,04,48,15.00
2015,07,05,04,49,15.00
2015,07,05,04,50,15.00
2015,07,05,04,51,15.00
2015,07,05,04,52,15.00
2015,07,05,04,53,15.00
2015,07,05,04,54,15.00
2015,07,05,04,55,14.90
2015,07,05,04,56,14.90
2015,07,05,04,57,14.90
2015,07,05,04,58,14.90
2015,07,05,04,59,14.90
2015,07,05,05,00,14.90
2015,07,05,05,01,14.90
2015,07,05,05,02,14.90
2015,07,05,05,03,14.80
2015,07,05,05,04,14.80
2015,07,05,05,05,14.80
2015,07,05,05,06,14.70
2015,07,05,05,07,14.70
2015,07,05,05,08,14.70
2015,07,05,05,09,14.70
2015,07,05,05,10,14.70
2015,07,05,05,11,14.70
2015,07,05,05,12,14.70
2015,07,05,05,13,14.70
2015,07,05,05,14,14.70
2015,07,05,05,15,14.70
2015,07,05,05,16,14.60
2015,07,05,05,17,14.60
2015,07,05,05,18,14.60
2015,07,05,05,19,14.60
2015,07,05,05,20,14.60
2015,07,05,05,21,14.60
2015,07,05,05,22,14.60
2015,07,05,05,23,14.60
2015,07,05,05,24,14.60
2015,07,05,05,25,14.60
2015,07,05,05,26,14.60
2015,07,05,05,27,14.60
2015,07,05,05,28,14.60
2015,07,05,05,29,14.60
2015,07,05,05,30,14.60
2015,07,05,05,31,14.60
2015,07,05,05,32,14.60
2015,07,05,05,33,14.60
2015,07,05,05,34,14.60
2015,07,05,05,35,14.50
2015,07,05,05,36,14.50
2015,07,05,05,37,14.50
2015,07,05,05,38,14.50
2015,07,05,05,39,14.50
2015,07,05,05,40,14.50
2015,07,05,05,41,14.50
2015,07,05,05,42,14.40
2015,07,05,05,43,14.40
2015,07,05,05,44,14.40
2015,07,05,05,45,14.40
2015,07,05,05,46,14.40
2015,07,05,05,47,14.40
2015,07,05,05,48,14.40
2015,07,05,05,49,14.40
2015,07,05,05,50,14.40
2015,07,05,05,51,14.40
2015,07,05,05,52,14.40
2015,07,05,05,53,14.40
2015,07,05,05,54,14.40
2015,07,05,05,55,14.40
2015,07,05,05,56,14.40
2015,07,05,05,57,14.40
2015,07,05,05,58,14.40
2015,07,05,05,59,14.30
2015,07,05,06,00,14.30
2015,07,05,06,01,14.30
2015,07,05,06,02,14.40
2015,07,05,06,03,14.40
2015,07,05,06,04,14.40
2015,07,05,06,05,14.40
2015,07,05,06,06,14.40
2015,07,05,06,07,14.40
2015,07,05,06,08,14.50
2015,07,05,06,09,14.50
2015,07,05,06,10,14.50
2015,07,05,06,11,14.60
2015,07,05,06,12,14.60
2015,07,05,06,13,14.60
2015,07,05,06,14,14.60
2015,07,05,06,15,14.60
2015,07,05,06,16,14.60
2015,07,05,06,17,14.60
2015,07,05,06,18,14.60
2015,07,05,06,19,14.60
2015,07,05,06,20,14.60
2015,07,05,06,21,14.60
2015,07,05,06,22,14.60
2015,07,05,06,23,14.60
2015,07,05,06,24,14.60
2015,07,05,06,25,14.70
2015,07,05,06,26,14.70
2015,07,05,06,27,14.70
2015,07,05,06,28,14.70
2015,07,05,06,29,14.70
2015,07,05,06,30,14.80
2015,07,05,06,31,14.80
2015,07,05,06,32,14.80
2015,07,05,06,33,14.80
2015,07,05,06,34,14.90
2015,07,05,06,35,14.90
2015,07,05,06,36,15.00
2015,07,05,06,37,15.00
2015,07,05,06,38,15.10
2015,07,05,06,39,15.10
2015,07,05,06,40,15.10
2015,07,05,06,41,15.10
2015,07,05,06,42,15.10
2015,07,05,06,43,15.10
2015,07,05,06,44,15.20
2015,07,05,06,45,15.20
2015,07,05,06,46,15.20
2015,07,05,06,47,15.20
2015,07,05,06,48,15.30
2015,07,05,06,49,15.30
2015,07,05,06,50,15.30
2015,07,05,06,51,15.30
2015,07,05,06,52,15.40
2015,07,05,06,53,15.50
2015,07,05,06,54,15.60
2015,07,05,06,55,15.60
2015,07,05,06,56,15.70
2015,07,05,06,57,15.70
2015,07,05,06,58,15.80
2015,07,05,06,59,15.80
2015,07,05,07,00,15.90
2015,07,05,07,01,15.90
2015,07,05,07,02,16.00
2015,07,05,07,03,16.00
2015,07,05,07,04,16.10
2015,07,05,07,05,16.20
2015,07,05,07,06,16.20
2015,07,05,07,07,16.30
2015,07,05,07,08,16.30
2015,07,05,07,09,16.40
2015,07,05,07,10,16.50
2015,07,05,07,11,16.50
2015,07,05,07,12,16.60
2015,07,05,07,13,16.70
2015,07,05,07,14,16.70
2015,07,05,07,15,16.80
2015,07,05,07,16,16.90
2015,07,05,07,17,16.90
2015,07,05,07,18,17.00
2015,07,05,07,19,17.10
2015,07,05,07,20,17.20
2015,07,05,07,21,17.30
2015,07,05,07,22,17.40
2015,07,05,07,23,17.50
2015,07,05,07,24,17.60
2015,07,05,07,25,17.70
2015,07,05,07,26,17.80
2015,07,05,07,27,17.80
2015,07,05,07,28,17.90
2015,07,05,07,29,18.00
2015,07,05,07,30,18.10
2015,07,05,07,31,18.10
2015,07,05,07,32,18.20
2015,07,05,07,33,18.30
2015,07,05,07,34,18.40
2015,07,05,07,35,18.40
2015,07,05,07,36,18.50
2015,07,05,07,37,18.60
2015,07,05,07,38,18.70
2015,07,05,07,39,18.80
2015,07,05,07,40,18.90
2015,07,05,07,41,19.00
2015,07,05,07,42,19.00
2015,07,05,07,43,19.10
2015,07,05,07,44,19.20
2015,07,05,07,45,19.30
2015,07,05,07,46,19.30
2015,07,05,07,47,19.40
2015,07,05,07,48,19.60
2015,07,05,07,49,19.70
2015,07,05,07,50,19.80
2015,07,05,07,51,19.90
2015,07,05,07,52,20.00
2015,07,05,07,53,20.10
2015,07,05,07,54,20.10
2015,07,05,07,55,20.20
2015,07,05,07,56,20.30
2015,07,05,07,57,20.40
2015,07,05,07,58,20.40
2015,07,05,07,59,20.50
2015,07,05,08,00,20.60
2015,07,05,08,01,20.70
2015,07,05,08,02,20.80
2015,07,05,08,03,20.90
2015,07,05,08,04,20.90
2015,07,05,08,05,21.10
2015,07,05,08,06,21.10
2015,07,05,08,07,21.20
2015,07,05,08,08,21.20
2015,07,05,08,09,21.30
2015,07,05,08,10,21.40
2015,07,05,08,11,21.40
2015,07,05,08,12,21.50
2015,07,05,08,13,21.60
2015,07,05,08,14,21.70
2015,07,05,08,15,21.80
2015,07,05,08,16,21.90
2015,07,05,08,17,21.90
2015,07,05,08,18,22.00
2015,07,05,08,19,22.10
2015,07,05,08,20,22.10
2015,07,05,08,21,22.20
2015,07,05,08,22,22.20
2015,07,05,08,23,22.30
2015,07,05,08,24,22.40
2015,07,05,08,25,22.40
2015,07,05,08,26,22.50
2015,07,05,08,27,22.60
2015,07,05,08,28,22.70
2015,07,05,08,29,22.70
2015,07,05,08,30,22.80
2015,07,05,08,31,22.90
2015,07,05,08,32,22.90
2015,07,05,08,33,23.00
2015,07,05,08,34,23.10
2015,07,05,08,35,23.10
2015,07,05,08,36,23.10
2015,07,05,08,37,23.10
2015,07,05,08,38,23.10
2015,07,05,08,39,23.10
2015,07,05,08,40,23.10
2015,07,05,08,41,23.20
2015,07,05,08,42,23.20
2015,07,05,08,43,23.30
2015,07,05,08,44,23.40
2015,07,05,08,45,23.40
2015,07,05,08,46,23.40
2015,07,05,08,47,23.50
2015,07,05,08,48,23.50
2015,07,05,08,49,23.60
2015,07,05,08,50,23.70
2015,07,05,08,51,23.70
2015,07,05,08,52,23.70
2015,07,05,08,53,23.70
2015,07,05,08,54,23.80
2015,07,05,08,55,23.80
2015,07,05,08,56,23.80
2015,07,05,08,57,23.80
2015,07,05,08,58,23.80
2015,07,05,08,59,23.70
2015,07,05,09,00,23.80
2015,07,05,09,01,23.80
2015,07,05,09,02,23.80
2015,07,05,09,03,23.80
2015,07,05,09,04,23.80
2015,07,05,09,05,23.80
2015,07,05,09,06,23.70
2015,07,05,09,07,23.70
2015,07,05,09,08,23.80
2015,07,05,09,09,23.80
2015,07,05,09,10,23.80
2015,07,05,09,11,23.80
2015,07,05,09,12,23.80
2015,07,05,09,13,23.80
2015,07,05,09,14,23.90
2015,07,05,09,15,23.90
2015,07,05,09,16,24.00
2015,07,05,09,17,24.00
2015,07,05,09,18,24.10
2015,07,05,09,19,24.10
2015,07,05,09,20,24.20
2015,07,05,09,21,24.20
2015,07,05,09,22,24.30
2015,07,05,09,23,24.30
2015,07,05,09,24,24.40
2015,07,05,09,25,24.40
2015,07,05,09,26,24.40
2015,07,05,09,27,24.50
2015,07,05,09,28,24.50
2015,07,05,09,29,24.60
2015,07,05,09,30,24.60
2015,07,05,09,31,24.70
2015,07,05,09,32,24.80
2015,07,05,09,33,24.90
2015,07,05,09,34,25.00
2015,07,05,09,35,25.00
2015,07,05,09,36,25.10
2015,07,05,09,37,25.30
2015,07,05,09,38,25.40
2015,07,05,09,39,25.40
2015,07,05,09,40,25.40
2015,07,05,09,41,25.50
2015,07,05,09,42,25.60
2015,07,05,09,43,25.70
2015,07,05,09,44,25.80
2015,07,05,09,45,25.90
2015,07,05,09,46,25.90
2015,07,05,09,47,25.90
2015,07,05,09,48,26.00
2015,07,05,09,49,26.10
2015,07,05,09,50,26.10
2015,07,05,09,51,26.20
2015,07,05,09,52,26.30
2015,07,05,09,53,26.40
2015,07,05,09,54,26.50
2015,07,05,09,55,26.60
2015,07,05,09,56,26.70
2015,07,05,09,57,26.80
2015,07,05,09,58,26.80
2015,07,05,09,59,26.90
2015,07,05,10,00,26.90
2015,07,05,10,01,26.90
2015,07,05,10,02,27.00
2015,07,05,10,03,27.00
2015,07,05,10,04,27.10
2015,07,05,10,05,27.10
2015,07,05,10,06,27.10
2015,07,05,10,07,27.20
2015,07,05,10,08,27.20
2015,07,05,10,09,27.20
2015,07,05,10,10,27.10
2015,07,05,10,11,27.10
2015,07,05,10,12,27.10
2015,07,05,10,13,27.20
2015,07,05,10,14,27.20
2015,07,05,10,15,27.20
2015,07,05,10,16,27.30
2015,07,05,10,17,27.30
2015,07,05,10,18,27.30
2015,07,05,10,19,27.30
2015,07,05,10,20,27.30
2015,07,05,10,21,27.30
2015,07,05,10,22,27.40
2015,07,05,10,23,27.40
2015,07,05,10,24,27.40
2015,07,05,10,25,27.40
2015,07,05,10,26,27.40
2015,07,05,10,27,27.40
2015,07,05,10,28,27.40
2015,07,05,10,29,27.40
2015,07,05,10,30,27.40
2015,07,05,10,31,27.40
2015,07,05,10,32,27.40
2015,07,05,10,33,27.50
2015,07,05,10,34,27.50
2015,07,05,10,35,27.40
2015,07,05,10,36,27.40
2015,07,05,10,37,27.40
2015,07,05,10,38,27.40
2015,07,05,10,39,27.40
2015,07,05,10,40,27.40
2015,07,05,10,41,27.40
2015,07,05,10,42,27.40
2015,07,05,10,43,27.30
2015,07,05,10,44,27.20
2015,07,05,10,45,27.20
2015,07,05,10,46,27.10
2015,07,05,10,47,27.10
2015,07,05,10,48,27.10
2015,07,05,10,49,27.00
2015,07,05,10,50,27.00
2015,07,05,10,51,27.00
2015,07,05,10,52,27.10
2015,07,05,10,53,27.10
2015,07,05,10,54,27.10
2015,07,05,10,55,27.10
2015,07,05,10,56,27.10
2015,07,05,10,57,27.10
2015,07,05,10,58,27.10
2015,07,05,10,59,27.10
2015,07,05,11,00,27.10
2015,07,05,11,01,27.10
2015,07,05,11,02,27.10
2015,07,05,11,03,27.10
2015,07,05,11,04,27.10
2015,07,05,11,05,27.10
2015,07,05,11,06,27.10
2015,07,05,11,07,27.10
2015,07,05,11,08,27.10
2015,07,05,11,09,27.00
2015,07,05,11,10,27.00
2015,07,05,11,11,27.00
2015,07,05,11,12,27.00
2015,07,05,11,13,27.00
2015,07,05,11,14,27.00
2015,07,05,11,15,26.90
2015,07,05,11,16,26.90
2015,07,05,11,17,26.90
2015,07,05,11,18,26.80
2015,07,05,11,19,26.80
2015,07,05,11,20,26.70
2015,07,05,11,21,26.60
2015,07,05,11,22,26.60
2015,07,05,11,23,26.60
2015,07,05,11,24,26.60
2015,07,05,11,25,26.50
2015,07,05,11,26,26.50
2015,07,05,11,27,26.50
2015,07,05,11,28,26.50
2015,07,05,11,29,26.50
2015,07,05,11,30,26.50
2015,07,05,11,31,26.50
2015,07,05,11,32,26.40
2015,07,05,11,33,26.40
2015,07,05,11,34,26.40
2015,07,05,11,35,26.30
2015,07,05,11,36,26.30
2015,07,05,11,37,26.30
2015,07,05,11,38,26.30
2015,07,05,11,39,26.30
2015,07,05,11,40,26.30
2015,07,05,11,41,26.20
2015,07,05,11,42,26.20
2015,07,05,11,43,26.20
2015,07,05,11,44,26.20
2015,07,05,11,45,26.10
2015,07,05,11,46,26.10
2015,07,05,11,47,26.00
2015,07,05,11,48,26.00
2015,07,05,11,49,26.00
2015,07,05,11,50,26.00
2015,07,05,11,51,26.00
2015,07,05,11,52,26.00
2015,07,05,11,53,25.90
2015,07,05,11,54,25.90
2015,07,05,11,55,25.80
2015,07,05,11,56,25.80
2015,07,05,11,57,25.70
2015,07,05,11,58,25.70
2015,07,05,11,59,25.70
2015,07,05,12,00,25.70
2015,07,05,12,01,25.70
2015,07,05,12,02,25.70
2015,07,05,12,03,25.70
2015,07,05,12,04,25.70
2015,07,05,12,05,25.80
2015,07,05,12,06,25.80
2015,07,05,12,07,25.80
2015,07,05,12,08,25.80
2015,07,05,12,09,25.80
2015,07,05,12,10,25.80
2015,07,05,12,11,25.80
2015,07,05,12,12,25.80
2015,07,05,12,13,25.80
2015,07,05,12,14,25.80
2015,07,05,12,15,25.80
2015,07,05,12,16,25.90
2015,07,05,12,17,25.90
2015,07,05,12,18,25.90
2015,07,05,12,19,26.00
2015,07,05,12,20,26.00
2015,07,05,12,21,26.00
2015,07,05,12,22,26.10
2015,07,05,12,23,26.10
2015,07,05,12,24,26.20
2015,07,05,12,25,26.10
2015,07,05,12,26,26.10
2015,07,05,12,27,26.10
2015,07,05,12,28,26.10
2015,07,05,12,29,26.10
2015,07,05,12,30,26.10
2015,07,05,12,31,26.10
2015,07,05,12,32,26.20
2015,07,05,12,33,26.20
2015,07,05,12,34,26.20
2015,07,05,12,35,26.30
2015,07,05,12,36,26.30
2015,07,05,12,37,26.40
2015,07,05,12,38,26.40
2015,07,05,12,39,26.40
2015,07,05,12,40,26.50
2015,07,05,12,41,26.50
2015,07,05,12,42,26.60
2015,07,05,12,43,26.60
2015,07,05,12,44,26.70
2015,07,05,12,45,26.70
2015,07,05,12,46,26.70
2015,07,05,12,47,26.70
2015,07,05,12,48,26.80
2015,07,05,12,49,26.80
2015,07,05,12,50,26.90
2015,07,05,12,51,26.90
2015,07,05,12,52,27.00
2015,07,05,12,53,27.00
2015,07,05,12,54,27.10
2015,07,05,12,55,27.20
2015,07,05,12,56,27.20
2015,07,05,12,57,27.20
2015,07,05,12,58,27.30
2015,07,05,12,59,27.40
2015,07,05,13,00,27.40
2015,07,05,13,01,27.50
2015,07,05,13,02,27.60
2015,07,05,13,03,27.60
2015,07,05,13,04,27.70
2015,07,05,13,05,27.70
2015,07,05,13,06,27.70
2015,07,05,13,07,27.70
2015,07,05,13,08,27.80
2015,07,05,13,09,27.80
2015,07,05,13,10,27.80
2015,07,05,13,11,27.70
2015,07,05,13,12,27.70
2015,07,05,13,13,27.80
2015,07,05,13,14,27.80
2015,07,05,13,15,27.90
2015,07,05,13,16,27.90
2015,07,05,13,17,28.00
2015,07,05,13,18,28.10
2015,07,05,13,19,28.10
2015,07,05,13,20,28.00
2015,07,05,13,21,28.00
2015,07,05,13,22,28.10
2015,07,05,13,23,28.10
2015,07,05,13,24,28.20
2015,07,05,13,25,28.30
2015,07,05,13,26,28.40
2015,07,05,13,27,28.40
2015,07,05,13,28,28.50
2015,07,05,13,29,28.60
2015,07,05,13,30,28.60
2015,07,05,13,31,28.60
2015,07,05,13,32,28.70
2015,07,05,13,33,28.70
2015,07,05,13,34,28.70
2015,07,05,13,35,28.80
2015,07,05,13,36,28.80
2015,07,05,13,37,28.80
2015,07,05,13,38,28.80
2015,07,05,13,39,28.70
2015,07,05,13,40,28.70
2015,07,05,13,41,28.70
2015,07,05,13,42,28.70
2015,07,05,13,43,28.70
2015,07,05,13,44,28.80
2015,07,05,13,45,28.80
2015,07,05,13,46,28.60
2015,07,05,13,47,28.50
2015,07,05,13,48,28.40
2015,07,05,13,49,28.20
2015,07,05,13,50,28.10
2015,07,05,13,51,28.00
2015,07,05,13,52,27.90
2015,07,05,13,53,27.80
2015,07,05,13,54,27.70
2015,07,05,13,55,27.60
2015,07,05,13,56,27.40
2015,07,05,13,57,27.30
2015,07,05,13,58,27.20
2015,07,05,13,59,27.20
2015,07,05,14,00,27.30
2015,07,05,14,01,27.30
2015,07,05,14,02,27.30
2015,07,05,14,03,27.30
2015,07,05,14,04,27.30
2015,07,05,14,05,27.30
2015,07,05,14,06,27.40
2015,07,05,14,07,27.40
2015,07,05,14,08,27.40
2015,07,05,14,09,27.40
2015,07,05,14,10,27.50
2015,07,05,14,11,27.50
2015,07,05,14,12,27.60
2015,07,05,14,13,27.60
2015,07,05,14,14,27.70
2015,07,05,14,15,27.70
2015,07,05,14,16,27.70
2015,07,05,14,17,27.80
2015,07,05,14,18,27.80
2015,07,05,14,19,27.90
2015,07,05,14,20,27.90
2015,07,05,14,21,27.90
2015,07,05,14,22,27.90
2015,07,05,14,23,27.80
2015,07,05,14,24,27.90
2015,07,05,14,25,27.90
2015,07,05,14,26,27.90
2015,07,05,14,27,27.90
2015,07,05,14,28,28.00
2015,07,05,14,29,28.10
2015,07,05,14,30,28.10
2015,07,05,14,31,28.10
2015,07,05,14,32,28.20
2015,07,05,14,33,28.20
2015,07,05,14,34,28.30
2015,07,05,14,35,28.40
2015,07,05,14,36,28.40
2015,07,05,14,37,28.40
2015,07,05,14,38,28.40
2015,07,05,14,39,28.40
2015,07,05,14,40,28.40
2015,07,05,14,41,28.40
2015,07,05,14,42,28.50
2015,07,05,14,43,28.50
2015,07,05,14,44,28.60
2015,07,05,14,45,28.60
2015,07,05,14,46,28.50
2015,07,05,14,47,28.50
2015,07,05,14,48,28.60
2015,07,05,14,49,28.60
2015,07,05,14,50,28.60
2015,07,05,14,51,28.60
2015,07,05,14,52,28.60
2015,07,05,14,53,28.50
2015,07,05,14,54,28.50
2015,07,05,14,55,28.50
2015,07,05,14,56,28.60
2015,07,05,14,57,28.60
2015,07,05,14,58,28.60
2015,07,05,14,59,28.60
2015,07,05,15,00,28.60
2015,07,05,15,01,28.60
2015,07,05,15,02,28.60
2015,07,05,15,03,28.60
2015,07,05,15,04,28.70
2015,07,05,15,05,28.70
2015,07,05,15,06,28.70
2015,07,05,15,07,28.80
2015,07,05,15,08,28.80
2015,07,05,15,09,28.90
2015,07,05,15,10,28.90
2015,07,05,15,11,28.90
2015,07,05,15,12,28.90
2015,07,05,15,13,29.00
2015,07,05,15,14,29.00
2015,07,05,15,15,29.10
2015,07,05,15,16,29.20
2015,07,05,15,17,29.30
2015,07,05,15,18,29.50
2015,07,05,15,19,29.60
2015,07,05,15,20,29.70
2015,07,05,15,21,29.90
2015,07,05,15,22,30.00
2015,07,05,15,23,30.10
2015,07,05,15,24,30.20
2015,07,05,15,25,30.30
2015,07,05,15,26,30.30
2015,07,05,15,27,30.40
2015,07,05,15,28,30.50
2015,07,05,15,29,30.50
2015,07,05,15,30,30.60
2015,07,05,15,31,30.60
2015,07,05,15,32,30.60
2015,07,05,15,33,30.60
2015,07,05,15,34,30.60
2015,07,05,15,35,30.60
2015,07,05,15,36,30.70
2015,07,05,15,37,30.70
2015,07,05,15,38,30.70
2015,07,05,15,39,30.60
2015,07,05,15,40,30.60
2015,07,05,15,41,30.50
2015,07,05,15,42,30.50
2015,07,05,15,43,30.50
2015,07,05,15,44,30.50
2015,07,05,15,45,30.60
2015,07,05,15,46,30.70
2015,07,05,15,47,30.70
2015,07,05,15,48,30.80
2015,07,05,15,49,30.80
2015,07,05,15,50,30.80
2015,07,05,15,51,30.90
2015,07,05,15,52,30.90
2015,07,05,15,53,31.00
2015,07,05,15,54,31.10
2015,07,05,15,55,31.10
2015,07,05,15,56,31.20
2015,07,05,15,57,31.20
2015,07,05,15,58,31.20
2015,07,05,15,59,31.20
2015,07,05,16,00,31.20
2015,07,05,16,01,31.20
2015,07,05,16,02,31.10
2015,07,05,16,03,31.10
2015,07,05,16,04,31.10
2015,07,05,16,05,31.10
2015,07,05,16,06,31.10
2015,07,05,16,07,31.10
2015,07,05,16,08,31.00
2015,07,05,16,09,30.90
2015,07,05,16,10,30.90
2015,07,05,16,11,30.80
2015,07,05,16,12,30.80
2015,07,05,16,13,30.80
2015,07,05,16,14,30.80
2015,07,05,16,15,30.80
2015,07,05,16,16,30.70
2015,07,05,16,17,30.60
2015,07,05,16,18,30.50
2015,07,05,16,19,30.40
2015,07,05,16,20,30.20
2015,07,05,16,21,30.10
2015,07,05,16,22,30.00
2015,07,05,16,23,29.90
2015,07,05,16,24,29.80
2015,07,05,16,25,29.70
2015,07,05,16,26,29.70
2015,07,05,16,27,29.60
2015,07,05,16,28,29.50
2015,07,05,16,29,29.40
2015,07,05,16,30,29.30
2015,07,05,16,31,29.30
2015,07,05,16,32,29.20
2015,07,05,16,33,29.10
2015,07,05,16,34,29.10
2015,07,05,16,35,29.00
2015,07,05,16,36,29.00
2015,07,05,16,37,29.00
2015,07,05,16,38,29.00
2015,07,05,16,39,29.10
2015,07,05,16,40,29.00
2015,07,05,16,41,29.00
2015,07,05,16,42,29.00
2015,07,05,16,43,28.90
2015,07,05,16,44,28.90
2015,07,05,16,45,29.00
2015,07,05,16,46,29.00
2015,07,05,16,47,29.10
2015,07,05,16,48,29.10
2015,07,05,16,49,29.00
2015,07,05,16,50,29.00
2015,07,05,16,51,29.00
2015,07,05,16,52,29.00
2015,07,05,16,53,29.10
2015,07,05,16,54,29.10
2015,07,05,16,55,29.10
2015,07,05,16,56,29.10
2015,07,05,16,57,29.10
2015,07,05,16,58,29.20
2015,07,05,16,59,29.20
2015,07,05,17,00,29.20
2015,07,05,17,01,29.10
2015,07,05,17,02,29.20
2015,07,05,17,03,29.20
2015,07,05,17,04,29.20
2015,07,05,17,05,29.20
2015,07,05,17,06,29.10
2015,07,05,17,07,29.10
2015,07,05,17,08,29.00
2015,07,05,17,09,29.00
2015,07,05,17,10,28.90
2015,07,05,17,11,28.90
2015,07,05,17,12,28.90
2015,07,05,17,13,28.80
2015,07,05,17,14,28.80
2015,07,05,17,15,28.70
2015,07,05,17,16,28.70
2015,07,05,17,17,28.60
2015,07,05,17,18,28.60
2015,07,05,17,19,28.60